Regional Weather Roundup
Issued by NWS

Home | Current Version | Previous Version | Graphics & Text | Print | Product List | Glossary On
Versions: 1 2 3 4 5 6 7 8 9 10 11 12 13 14 15 16 17 18 19 20 21 22 23 24 25 26 27 28 29 30 31 32 33 34 35 36 37 38 39 40 41 42 43 44 45 46 47 48 49 50
000
ASUS43 KLOT 260000
RWRIL

ILLINOIS REGIONAL WEATHER ROUNDUP
NATIONAL WEATHER SERVICE CHICAGO/ROMEOVILLE IL
600 PM CST THU DEC 25 2014

NOTE: "FAIR" INDICATES FEW OR NO CLOUDS BELOW 12,000 FEET WITH NO
SIGNIFICANT WEATHER AND/OR OBSTRUCTIONS TO VISIBILITY.

* THESE STATIONS ARE NOT UNDER NWS QUALITY CONTROL. THEY ALSO MAY NOT
  REPORT WEATHER SUCH AS PRECIPITATION OR FOG.

ILZ001-002-007-009-015-016-024-260100-
NORTHWEST ILLINOIS

CITY           SKY/WX    TMP DP  RH WIND       PRES   REMARKS
MOLINE         PTCLDY    41  31  67 SE12      29.88S
6HR MIN TEMP:  40; 6HR MAX TEMP:  50;

STERLING*      CLOUDY    41  34  75 S7        29.92F
$$

ILZ003-004-008-010-011-017-018-260100-
NORTH CENTRAL ILLINOIS

CITY           SKY/WX    TMP DP  RH WIND       PRES   REMARKS
ROCKFORD       MOCLDY    41  33  73 S13       29.94S
6HR MIN TEMP:  39; 6HR MAX TEMP:  45;

FREEPORT*      CLOUDY    39  33  80 S16       29.91F WCI  30
$$

ILZ005-006-012>014-019>023-260100-
NORTHEAST ILLINOIS

CITY           SKY/WX    TMP DP  RH WIND       PRES   REMARKS
CHICAGO-OHARE  MOCLDY    40  34  79 S13       29.98R
6HR MIN TEMP:  37; 6HR MAX TEMP:  42;

CHICAGO-MIDWAY MOCLDY    42  35  76 S10       30.01R
6HR MIN TEMP:  40; 6HR MAX TEMP:  44;

AURORA         PTCLDY    41  34  76 S9        29.98R
6HR MIN TEMP:  40; 6HR MAX TEMP:  45;

WAUKEGAN       MOCLDY    40  31  70 S9        29.97R
6HR MIN TEMP:  37; 6HR MAX TEMP:  42;

DUPAGE AIRPORT PTCLDY    41  34  76 S12       29.98R
6HR MIN TEMP:  38; 6HR MAX TEMP:  43;

WHEELING       CLOUDY    41  33  73 S14       30.00R
6HR MIN TEMP:  38; 6HR MAX TEMP:  42;

NORTHERLY ISL    N/A     41  34  76 S9          N/A
$$

LMZ740>746-260100-
SOUTHERN LAKE MICHIGAN

STATION/POSITION SKY/WX   TEMP    WIND        PRES    VSBY  WAVE
                          AIR SEA DIR/SP/G                  HT/PER
                          (F)     (DEG/KT/KT) (MB)    (MI)  (FT/S)
WAUKEGAN HARBOR            38                   N/A
HARRISON CRIB              40     180/ 18/ 20   N/A
BURNHAM HARBOR             41     160/  9/ 14   N/A
CALUMET HARBOR             40     170/  8/ 13 1015.3R
MICHIGAN CITY              39     150/  8/ 12   N/A
$$

ILZ025>027-034>036-040-047-049-050-058-095>099-260100-
WEST-CENTRAL ILLINOIS

CITY           SKY/WX    TMP DP  RH WIND       PRES   REMARKS
QUINCY         CLEAR     40  30  67 SE9       29.87F
MACOMB*        PTCLDY    39  33  78 SE10      29.92S WCI  33
$$

ILZ028>032-037-038-041>044-048-051>054-059>061-260100-
CENTRAL ILLINOIS

CITY           SKY/WX    TMP DP  RH WIND       PRES   REMARKS
DECATUR        CLEAR     42  34  73 S13       30.02R
PEORIA         PTCLDY    44  34  67 S13       29.95S
6HR MIN TEMP:  44; 6HR MAX TEMP:  49;

LINCOLN*       CLEAR     42  36  79 S9        29.99S
SPRINGFIELD    PTCLDY    44  35  70 S15       29.97F
6HR MIN TEMP:  43; 6HR MAX TEMP:  49;

TAYLORVILLE    NOT AVBL
$$

ILZ033-039-045-046-055>057-062-063-260100-
EAST-CENTRAL ILLINOIS

CITY           SKY/WX    TMP DP  RH WIND       PRES   REMARKS
CHAMPAIGN      CLEAR     39  34  82 S14       30.03R WCI  31
DANVILLE*      CLEAR     38  33  82 SE8       30.03S WCI  32
MATTOON        CLEAR     40  34  79 S10       30.04S
$$

ILZ079-100>102-260100-
SOUTHWEST ILLINOIS

CITY           SKY/WX    TMP DP  RH WIND       PRES   REMARKS
ALTON          CLEAR     45  30  57 S17       29.99R
CAHOKIA*       PTCLDY    46  35  65 SE10G20   30.00S
SPARTA*        PTCLDY    44  37  75 S14       30.04S
$$

ILZ064>066-069>071-074>076-080>082-084>086-088>090-092>094-260100-
SOUTH-CENTRAL ILLINOIS

CITY           SKY/WX    TMP DP  RH WIND       PRES   REMARKS
CARBONDALE     PTCLDY    42  33  70 S8        30.08R
6HR MIN TEMP:  42; 6HR MAX TEMP:  49;

EFFINGHAM*     CLEAR     42  32  69 SE7       30.06F
MARION         MOCLDY    43  34  70 S8        30.10R
MT. VERNON     PTCLDY    43  32  65 S12       30.08R
SALEM*         PTCLDY    45  34  65 S8        30.05S
$$

ILZ067-068-072-073-078-083-087-091-260100-
SOUTHEAST ILLINOIS

CITY           SKY/WX    TMP DP  RH WIND       PRES   REMARKS
LAWRENCEVILLE  CLEAR     38  34  85 SE8       30.11S WCI  32
ROBINSON*      CLEAR     38  33  84 S9        30.11S WCI  31
CARMI*         CLEAR     39  36  87 SE7       30.11R WCI  34
$$

ABBREVIATIONS USED IN REMARKS
   TC - TEMPERATURE IN CELSIUS
  WCI - WIND CHILL INDEX
   HX - HEAT INDEX
  VSB - VISIBILITY
$$



USA.gov is the U.S. government's official web portal to all federal, state and local government web resources and services.